Location: Peebles
(55.6412°N, 3.1714°W)
Time: 14:35:09
(UTC+01:00)

Cosmos 2184 Rocket - Pass Details

Date: 26 September 2021
Orbit: 958 x 1003 km, 82.9° (Epoch: 17 October)

Event Time Altitude Azimuth Distance (km) Brightness Sun altitude
Rises 20:16:03 0° 194° (SSW) 3,700 7.0 -11.4°
Reaches altitude 10° 20:18:35 10° 196° (SSW) 2,750 6.4 -11.7°
Maximum altitude 20:24:54 77° 283° (WNW) 1,013 4.2 -12.6°
Drops below altitude 10° 20:31:12 10° 10° (N) 2,736 6.4 -13.4°
Sets 20:33:43 0° 12° (NNE) 3,681 7.1 -13.8°
